Regional Weather Roundup
Issued by NWS

Home | Current Version | Previous Version | Text Only | Print | Product List | Glossary On
Versions: 1 2 3 4 5 6 7 8 9 10 11 12 13 14 15 16 17 18 19 20 21 22 23 24 25 26 27 28 29 30 31 32 33 34 35 36 37 38 39 40 41 42 43 44 45 46 47 48 49 50
000
ASUS45 KPSR 231910
RWRAZ

ARIZONA HOURLY REGIONAL WEATHER ROUNDUP
NATIONAL WEATHER SERVICE PHOENIX AZ
1200 PM MST MON OCT 23 2017

NOTE: FAIR INDICATES FEW OR NO CLOUDS BELOW 12,000 FEET WITH NO
SIGNIFICANT WEATHER AND/OR OBSTRUCTIONS TO VISIBILITY.

AZZ001>003-036-232000-
NORTHWEST ARIZONA

CITY           SKY/WX    TMP DP  RH WIND       PRES   REMARKS
BULLHEAD CITY  SUNNY     88  25  10 N31G47    30.14F
KINGMAN        SUNNY     81  26  13 N9        30.34F
$$

AZZ004>008-015-016-018-232000-
NORTH CENTRAL ARIZONA

CITY           SKY/WX    TMP DP  RH WIND       PRES   REMARKS
GRAND CANYON   SUNNY     72  19  13 NE9       30.53F
WILLIAMS       SUNNY     75  23  14 N13       30.51S
PRESCOTT       SUNNY     76  19  11 NW7       30.39F
FLAGSTAFF      SUNNY     70  18  13 E14G22    30.52F
PAYSON         MOSUNNY   81  16   9 N13       30.38F HAZE
PAGE           SUNNY     67  24  19 N3        30.44F
$$

AZZ009>014-017-232000-
NORTHEAST ARIZONA

CITY           SKY/WX    TMP DP  RH WIND       PRES   REMARKS
WINSLOW        SUNNY     70  19  14 CALM      30.45F
SAINT JOHNS    SUNNY     69  20  15 VRB3      30.45F
WINDOW ROCK    SUNNY     72  24  16 NW14G22   30.48F
SHOW LOW       SUNNY     70  19  14 N13       30.50S
$$

AZZ540-542>544-546-548-232000-
GREATER PHOENIX AREA

CITY           SKY/WX    TMP DP  RH WIND       PRES   REMARKS
PHOENIX        SUNNY     88  28  11 VRB6      30.10F
BUCKEYE        SUNNY     86  86 100 SE6       30.12F HX 112
GLENDALE       MOSUNNY   88  28  11 CALM      30.13F
LUKE AFB       SUNNY     87  26  11 S3        30.10F
DEER VALLEY    SUNNY     88  25  10 CALM      30.12F
SCOTTSDALE     SUNNY     87  26  11 VRB3      30.14F
MESA-FALCON    SUNNY     90  27  10 N8        30.12F
MESA-GATEWAY   SUNNY     84  30  14 W7        30.14F
CHANDLER       SUNNY     84  28  13 CALM      30.13F
$$

AZZ539-553-232000-
SOUTHWEST MARICOPA COUNTY AND PINAL COUNTY

CITY           SKY/WX    TMP DP  RH WIND       PRES   REMARKS
CASA GRANDE    NOT AVBL
GILA BEND      SUNNY     88  23   9 N7        30.11
$$

AZZ503-504-507>509-232000-
SOUTHEAST ARIZONA

CITY           SKY/WX    TMP DP  RH WIND       PRES   REMARKS
TUCSON         SUNNY     88  25  10 N6        30.18F
DAVIS-MONTHAN  SUNNY     89  23   9 N3        30.17F
RYAN FIELD     SUNNY     88  21   8 NE6       30.18F
NOGALES        SUNNY     90  20   7 VRB5      30.24F
SIERRA VISTA   SUNNY     84  17   8 E5        30.33F
DOUGLAS        SUNNY     83  19   9 CALM      30.29F
SAFFORD        SUNNY     79  18  10 VRB3      30.24F
$$

AZZ532-232000-
SOUTHWEST ARIZONA

CITY           SKY/WX    TMP DP  RH WIND       PRES   REMARKS
YUMA           SUNNY     92  29  10 N13       30.09F
$$

CAZ041-043-047-048-061-525>527-560>570-232000-
SOUTHERN CALIFORNIA

CITY           SKY/WX    TMP DP  RH WIND       PRES   REMARKS
DOWNTOWN L.A.  SUNNY     97  32  10 VRB3      30.05F
L.A. AIRPORT   SUNNY     97  44  16 CALM      30.06F
SAN DIEGO      SUNNY     89  43  20 NW9       30.06F
BURBANK        SUNNY     93  29  10 SE5       30.09F
ONTARIO        SUNNY    102  15   4 E13G22    30.10F
RIVERSIDE      SUNNY     96  29   9 NE8       30.11F
PALM SPRINGS   SUNNY    100  24   6 CALM      30.14F
EL CENTRO NAS  SUNNY     96  23   7 N12       30.11F
IMPERIAL       SUNNY     93  31  11 NW7       30.09F
BLYTHE         SUNNY     93  25   8 N13G23    30.13F
NEEDLES        SUNNY     93  22   7 N21G31    30.18F
$$

NVZ020-UTZ003-232000-
SOUTHERN NEVADA-UTAH

CITY           SKY/WX    TMP DP  RH WIND       PRES   REMARKS
LAS VEGAS      SUNNY     83  31  15 E8        30.32F
SALT LAKE CITY PTSUNNY   63  39  41 N8        30.59R
$$

NMZ009-TXZ055-232000-
NEW MEXICO-WEST TEXAS

CITY           SKY/WX    TMP DP  RH WIND       PRES   REMARKS
ALBUQUERQUE    MOSUNNY   71  23  16 N23G30    30.37F
EL PASO        MOSUNNY   78  25  14 W7        30.26F
$$


........................KEY........................
SKY/WX - SKY CONDITION/WEATHER
TMP    - TEMPERATURE IN FAHRENHEIT
DP     - DEW POINT IN FAHRENHEIT
RH     - RELATIVE HUMIDITY IN PERCENT
WIND   - DIRECTION AND SPEED IN MILES PER HOUR (MPH)
VRB    - VARIABLE WIND DIRECTION
PRES   - MEAN SEA LEVEL PRESSURE IN INCHES OF MERCURY
         F - FALLING PRESSURE   R - RISING PRESSURE
         S - STEADY PRESSURE
VSB    - VISIBILITY IN MILES
HX     - HEAT INDEX IN FAHRENHEIT
WCI    - WIND CHILL INDEX IN FAHRENHEIT
TC     - TEMPERATURE IN CELSIUS WHICH IS ALSO KNOWN AS
         TEMPERATURE IN CENTIGRADE
AFB    - AIR FORCE BASE
         LUKE AFB IS LUKE AIR FORCE BASE
         DAVIS-MONTHAN IS DAVIS-MONTHAN AIR FORCE BASE
NAS    - NAVAL AIR STATION
         EL CENTRO NAS IS EL CENTRO NAVAL AIR STATION
N/A    - NOT AVAILABLE




USA.gov is the U.S. government's official web portal to all federal, state and local government web resources and services.